This is the latest recevied weather packets stored in our database for station/object KJ6LNH-1. If no packets are shown the sender has not sent any weather packets the latest 10 day(s).
| Time | Temp. | Humidity | Pressure | Rain* | Wind** | Luminosity | Snow |
|---|---|---|---|---|---|---|---|
| 1777908308 | 14.44° C | 74% | 1013.4 hPa | 0 mm | - | - | - |
| 1777908008 | 15° C | 75% | 1013.4 hPa | 0 mm | - | - | - |
| 1777907707 | 13.89° C | 76% | 1013.4 hPa | 0 mm | - | - | - |
| 1777907409 | 13.89° C | 77% | 1013.4 hPa | 0 mm | - | - | - |
| 1777907109 | 13.89° C | 77% | 1013.5 hPa | 0 mm | - | - | - |
| 1777906256 | 13.33° C | 81% | 1013.4 hPa | 0 mm | - | - | - |
| 1777905981 | 12.78° C | 82% | 1013.3 hPa | 0 mm | - | - | - |
| 1777905610 | 12.78° C | 84% | 1013.3 hPa | 0 mm | - | - | - |
| 1777905460 | 12.78° C | 84% | 1013.4 hPa | 0 mm | - | - | - |
| 1777905024 | 12.22° C | 85% | 1013.4 hPa | 0 mm | - | - | - |
| 1777904737 | 12.22° C | 85% | 1013.4 hPa | 0 mm | - | - | - |
| 1777904435 | 12.22° C | 86% | 1013.5 hPa | 0 mm | - | - | - |
| 1777904125 | 11.67° C | 87% | 1013.4 hPa | 0 mm | - | - | - |
| 1777903874 | 11.67° C | 87% | 1013.3 hPa | 0 mm | - | - | - |
| 1777903641 | 11.67° C | 89% | 1013.2 hPa | 0 mm | - | - | - |
| 1777903219 | 11.11° C | 90% | 1013.3 hPa | 0 mm | - | - | - |
| 1777903052 | 11.11° C | 92% | 1013.3 hPa | 0 mm | - | - | - |
| 1777902617 | 10.56° C | 93% | 1013.2 hPa | 0 mm | - | - | - |
| 1777902311 | 10.56° C | 95% | 1013.2 hPa | 0 mm | - | - | - |
| 1777902010 | 10.56° C | 95% | 1013.2 hPa | 0 mm | - | - | - |
| 1777901515 | 10° C | 95% | 1013 hPa | 0 mm | - | - | - |
| 1777901147 | 10° C | 95% | 1013 hPa | 0 mm | - | - | - |
| 1777900666 | 10° C | 95% | 1012.9 hPa | 0 mm | - | - | - |
| 1777900318 | 10° C | 95% | 1012.9 hPa | 0 mm | - | - | - |
| 1777899932 | 10° C | 95% | 1012.8 hPa | 0 mm | - | - | - |
* Rain latest hour (hover to see other rain measurements)
** Current wind speed in m/s (hover to see current wind gust speed)